Location: Hermaringen
(48.5952°N, 10.2585°E)
Time: 11:46:49
(UTC+00:00)

Explorer 7 - All Passes

Search period start: 16 February 2026 00:00
Search period end: 26 February 2026 00:00
Orbit: 431 x 545 km, 50.2° (Epoch: 16 February)

Date Brightness Start Highest point End Pass type
(mag) Time Alt. Az. Time Alt. Az. Time Alt. Az.
16 Feb - 14:08:07 10° S 14:10:04 14° SE 14:12:03 10° ESE daylight
16 Feb - 15:44:20 10° SW 15:47:53 59° SSE 15:51:35 10° ENE daylight
16 Feb - 17:22:39 10° W 17:26:21 68° N 17:30:11 10° E visible
16 Feb - 19:01:10 10° WNW 19:04:58 87° NNE 19:08:55 10° ESE visible
16 Feb - 20:39:43 10° W 20:43:12 32° SSW 20:46:47 10° SSE visible
17 Feb - 13:42:39 10° SSE 13:44:28 13° SE 13:46:18 10° ESE daylight
17 Feb - 15:18:44 10° SW 15:22:15 57° SSE 15:25:55 10° ENE daylight
17 Feb - 16:57:02 10° W 17:00:42 68° N 17:04:31 10° E daylight
17 Feb - 18:35:32 10° WNW 18:39:19 86° NNE 18:43:15 10° ESE visible
17 Feb - 20:14:05 10° W 20:17:34 33° SSW 20:21:10 10° SSE visible
18 Feb - 13:17:11 10° SSE 13:18:49 13° SE 13:20:29 10° ESE daylight
18 Feb - 14:53:07 10° SW 14:56:36 55° SSE 15:00:13 10° ENE daylight
18 Feb - 16:31:23 10° W 16:35:01 69° N 16:38:49 10° ENE daylight
18 Feb - 18:09:53 10° WNW 18:13:38 84° NNE 18:17:32 10° ESE visible
18 Feb - 19:48:25 10° W 19:51:54 33° SSW 19:55:29 10° SSE visible
19 Feb - 12:51:42 10° SSE 12:53:10 12° SE 12:54:38 10° ESE daylight
19 Feb - 14:27:28 10° SW 14:30:54 53° SSE 14:34:30 10° ENE daylight
19 Feb - 16:05:42 10° W 16:09:19 69° N 16:13:05 10° ENE daylight
19 Feb - 17:44:12 10° WNW 17:47:55 83° NNE 17:51:48 10° ESE visible
19 Feb - 19:22:43 10° W 19:26:12 34° SSW 19:29:47 10° SSE visible
20 Feb - 12:26:12 10° SSE 12:27:28 12° SE 12:28:43 10° ESE daylight
20 Feb - 14:01:46 10° SW 14:05:11 51° SSE 14:08:44 10° ENE daylight
20 Feb - 15:40:00 10° W 15:43:35 69° N 15:47:18 10° ENE daylight
20 Feb - 17:18:29 10° WNW 17:22:11 82° NNE 17:26:02 10° ESE visible
20 Feb - 18:56:59 10° W 19:00:27 35° SSW 19:04:03 10° SE visible
21 Feb - 12:00:45 10° SSE 12:01:43 11° SE 12:02:42 10° ESE daylight
21 Feb - 13:36:02 10° SW 13:39:26 49° SSE 13:42:57 10° ENE daylight
21 Feb - 15:14:14 10° W 15:17:48 70° N 15:21:31 10° ENE daylight
21 Feb - 16:52:43 10° WNW 16:56:23 80° N 17:00:13 10° E daylight
21 Feb - 18:31:13 10° W 18:34:41 36° SSW 18:38:16 10° SE visible
22 Feb - 11:35:22 10° SE 11:35:58 10° SE 11:36:33 10° SE daylight
22 Feb - 13:10:17 10° SW 13:13:39 47° SSE 13:17:07 10° ENE daylight
22 Feb - 14:48:27 10° W 14:52:00 70° N 14:55:41 10° ENE daylight
22 Feb - 16:26:56 10° WNW 16:30:36 79° NNE 16:34:23 10° E daylight
22 Feb - 18:05:25 10° W 18:08:53 37° SSW 18:12:28 10° SE visible
23 Feb - 12:44:30 10° SW 12:47:50 45° SSE 12:51:16 10° ENE daylight
23 Feb - 14:22:38 10° W 14:26:10 71° N 14:29:50 10° ENE daylight
23 Feb - 16:01:08 10° WNW 16:04:45 78° NNE 16:08:30 10° E daylight
23 Feb - 17:39:34 10° W 17:43:03 38° SSW 17:46:38 10° SE visible
24 Feb - 12:18:40 10° SW 12:21:59 44° SSE 12:25:22 10° E daylight
24 Feb - 13:56:47 10° W 14:00:17 72° N 14:03:55 10° ENE daylight
24 Feb - 15:35:17 10° WNW 15:38:52 76° N 15:42:36 10° E daylight
24 Feb - 17:13:43 10° W 17:17:10 40° SSW 17:20:45 10° SE daylight
25 Feb - 11:52:48 10° SW 11:56:05 42° SSE 11:59:27 10° E daylight
25 Feb - 13:30:53 10° W 13:34:24 73° N 13:38:00 10° ENE daylight
25 Feb - 15:09:23 10° WNW 15:12:58 75° NNE 15:16:40 10° E daylight
25 Feb - 16:47:49 10° W 16:51:16 41° SSW 16:54:50 10° SE daylight
